This demonstration page uses our WeatherBlox Daily Observations layout. Learn more.

Left ArrowRight Arrow

39.01783, -85.05884

Hourly Observations for August 8, 2022

Temp ( °F °C ) Dew Point ( °F °C ) Humidity (%) Winds ( mph kmh ) Pressure ( in mb ) Visibility ( mi km ) Precip ( " mm )
12:52 am 00:52 Mostly Clear 73 22.8 73 22.8 100 100 SSW 9 15 30.08 1019 10 16 0.00 0.00
1:52 am 01:52 Mostly Clear 73 22.8 73 22.8 100 100 SW 7 11 30.07 1018 10 16 0.00 0.00
2:52 am 02:52 Mostly Clear 72 22.2 72 22.2 100 100 SSW 8 13 30.06 1018 10 16 0.00 0.00
3:52 am 03:52 Mostly Clear 71 21.7 71 21.7 100 100 SSW 6 9 30.05 1018 9 14 0.00 0.00
4:52 am 04:52 Mostly Clear 71 21.7 71 21.7 100 100 SSW 7 11 30.05 1018 9 14 0.00 0.00
5:52 am 05:52 Partly Cloudy 71 21.7 71 21.7 100 100 SSW 9 15 30.05 1018 10 16 0.00 0.00
6:52 am 06:52 Mostly Sunny 71 21.7 71 21.7 100 100 SSW 7 11 30.04 1017 9 14 0.00 0.00
7:52 am 07:52 Mostly Sunny 72 22.2 72 22.2 100 100 SSW 7 11 30.06 1018 9 14 0.00 0.00
8:52 am 08:52 Mostly Sunny 75 23.9 72 22.2 90 90 SSW 9 15 30.06 1018 10 16 0.00 0.00
9:52 am 09:52 Mostly Sunny 80 26.7 75 23.9 85 85 SW 5 7 30.05 1018 10 16 0.00 0.00
10:52 am 10:52 Mostly Sunny 83 28.3 77 25 82 82 SW 9 15 30.06 1018 10 16 0.00 0.00
11:52 am 11:52 Partly Cloudy 85 29.4 78 25.6 80 80 SW 10 17 30.05 1018 10 16 0.00 0.00
12:52 pm 12:52 Partly Cloudy 86 30 77 25 75 75 SW 13 20 30.04 1017 10 16 0.00 0.00
1:52 pm 13:52 Partly Cloudy 88 31.1 77 25 70 70 SW 13 20 30.03 1017 10 16 0.00 0.00
2:52 pm 14:52 Partly Cloudy 89 31.7 76 24.4 65 65 SW 13 20 30.01 1016 10 16 0.00 0.00
3:52 pm 15:52 Partly Cloudy 87 30.6 75 23.9 68 68 SW 12 19 29.99 1016 10 16 0.00 0.00
4:52 pm 16:52 Mostly Sunny 88 31.1 77 25 70 70 SSW 14 22 29.96 1014 10 16 0.00 0.00
5:52 pm 17:52 Mostly Sunny 87 30.6 72 22.2 61 61 SW 12 19 29.94 1014 10 16 0.00 0.00
6:52 pm 18:52 Mostly Sunny 87 30.6 77 25 72 72 SW 9 15 29.93 1013 10 16 0.00 0.00
7:52 pm 19:52 Mostly Sunny 85 29.4 78 25.6 80 80 SSW 9 15 29.92 1013 10 16 0.00 0.00
8:52 pm 20:52 Mostly Clear 82 27.8 77 25 85 85 S 7 11 29.93 1014 10 16 0.00 0.00
9:52 pm 21:52 Clear 81 27.2 76 24.4 85 85 SSW 6 9 29.96 1015 10 16 0.00 0.00
10:52 pm 22:52 Clear 79 26.1 76 24.4 90 90 SSW 6 9 29.98 1015 10 16 0.00 0.00
11:52 pm 23:52 Clear 79 26.1 74 23.3 85 85 SSW 6 9 29.98 1015 10 16 0.00 0.00

Powered by AerisWeather